Iron Mountain, MI

8:22 PM CDT on April 28, 2017 (GMT -0500)
Ford

Weather History for KIMT - January, 2014

Change the Weather History Date:

Tuesday, January 21, 2014

  Actual Average Record
Temperature  
Mean Temperature 0 °F -  
Max Temperature 8 °F 26 °F 45 °F (1981)
Min Temperature -9 °F 3 °F -31 °F (1984)
Degree Days  
Heating Degree Days 66    
Moisture  
Dew Point -10 °F    
Average Humidity 70    
Maximum Humidity 83    
Minimum Humidity 46    
Precipitation  
Precipitation 0.00 in - - ()
Sea Level Pressure  
Sea Level Pressure 30.24 in    
Wind  
Wind Speed 5 mph (NNW)    
Max Wind Speed 14 mph    
Max Gust Speed -    
Visibility 10 miles    
Events      
Averages and records for this station are not official NWS values.
T = Trace of Precipitation, MM = Missing Value Source: NWS Daily Summary

Daily Weather History Graph

Daily Weather History Graph

Search for Another Location

Airport or City:

Trip Planner

Search our weather history database for the weather conditions in past years. The results will help you decide how hot, cold, wet, or windy it might be!

Date:

Astronomy

Jan. 21, 2014 Rise Set
Actual Time 7:25 AM CST 4:42 PM CST
Civil Twilight 6:52 AM CST 5:15 PM CST
Nautical Twilight 6:16 AM CST 5:51 PM CST
Astronomical Twilight 5:40 AM CST 6:27 PM CST
Moon 10:35 PM CST (1/21) 9:36 AM CST (1/21)
Length of Visible Light 10h 22m
Length of Day
9h 17m
Waning Gibbous, 74% of the Moon is Illuminated
Jan 21
Waning Gibbous
Jan 23
Last Quarter
Jan 30
New
Feb 6
First Quarter
Feb 14
Full

Hourly Weather History & Observations

Time (CST) Temp. Windchill Dew Point Humidity Pressure Visibility Wind Dir Wind Speed Gust Speed Precip Events Conditions
12:22 AM -9.4 °F - -14.8 °F 77% 30.18 in 10.0 mi Calm Calm - N/A   Mostly Cloudy
12:54 AM -8.0 °F -19.2 °F -13.0 °F 79% 30.29 in 10.0 mi NNW 4.6 mph - N/A   Overcast
1:54 AM -2.0 °F -13.9 °F -9.0 °F 72% 30.30 in 10.0 mi NNW 5.8 mph - N/A   Overcast
2:54 AM -2.0 °F -15.4 °F -9.9 °F 69% 30.30 in 10.0 mi North 6.9 mph - N/A   Overcast
3:23 AM -2.2 °F -15.6 °F -9.4 °F 71% 30.19 in 10.0 mi NNW 6.9 mph - N/A   Scattered Clouds
3:35 AM -2.2 °F -15.6 °F -9.4 °F 71% 30.20 in 10.0 mi NNW 6.9 mph - N/A   Mostly Cloudy
3:54 AM -2.9 °F -16.5 °F -9.0 °F 75% 30.30 in 10.0 mi NNW 6.9 mph - N/A   Overcast
4:54 AM -2.0 °F -15.4 °F -8.0 °F 76% 30.30 in 10.0 mi NNW 6.9 mph - N/A   Overcast
5:54 AM -0.0 °F -11.6 °F -7.1 °F 72% 30.31 in 7.0 mi NNW 5.8 mph - 0.00 in   Overcast
6:54 AM -0.0 °F -18.7 °F -8.0 °F 69% 30.31 in 10.0 mi NNW 13.8 mph - 0.00 in   Overcast
7:54 AM -2.0 °F -17.7 °F -9.9 °F 69% 30.32 in 10.0 mi WNW 9.2 mph - N/A   Mostly Cloudy
8:54 AM -0.0 °F -16.3 °F -9.0 °F 66% 30.31 in 10.0 mi NW 10.4 mph - N/A   Mostly Cloudy
9:54 AM -0.9 °F -17.4 °F -9.0 °F 69% 30.33 in 10.0 mi NNW 10.4 mph - 0.00 in   Overcast
10:54 AM 1.0 °F -14.0 °F -8.0 °F 66% 30.32 in 10.0 mi WNW 9.2 mph - N/A   Overcast
11:42 AM 1.4 °F -11.3 °F -7.6 °F 66% 30.18 in 10.0 mi North 6.9 mph - N/A   Scattered Clouds
11:54 AM 1.9 °F -7.6 °F -8.0 °F 63% 30.29 in 10.0 mi Variable 4.6 mph - N/A   Clear
12:54 PM 3.0 °F -9.3 °F -8.0 °F 60% 30.27 in 10.0 mi NNW 6.9 mph - N/A   Clear
1:54 PM 5.0 °F -6.9 °F -8.0 °F 55% 30.24 in 10.0 mi NW 6.9 mph - N/A   Mostly Cloudy
2:54 PM 7.0 °F - -8.0 °F 51% 30.22 in 10.0 mi Calm Calm - N/A   Overcast
3:54 PM 8.1 °F - -9.0 °F 46% 30.21 in 10.0 mi Calm Calm - N/A   Overcast
4:54 PM 1.9 °F - -9.0 °F 60% 30.20 in 10.0 mi Calm Calm - N/A   Partly Cloudy
5:54 PM -4.0 °F - -11.0 °F 72% 30.19 in 10.0 mi Calm Calm - N/A   Clear
6:54 PM -8.0 °F - -14.1 °F 75% 30.19 in 10.0 mi Calm Calm - N/A   Clear
7:54 PM -9.9 °F - -14.1 °F 82% 30.18 in 6.0 mi Calm Calm - N/A   Overcast
8:54 PM -9.9 °F - -15.0 °F 78% 30.16 in 10.0 mi Calm Calm - N/A   Overcast
9:54 PM -7.1 °F - -11.0 °F 83% 30.14 in 10.0 mi Calm Calm - N/A   Overcast
10:54 PM -5.1 °F - -11.0 °F 76% 30.12 in 10.0 mi Calm Calm - N/A   Overcast
11:54 PM -4.0 °F - -9.0 °F 79% 30.10 in 10.0 mi Calm Calm - N/A   Overcast